St Lawrence Observation History
Time Wind Speed Temp Pressure Rel. Hum Rain
03/02:00pm NNE 9-12 kts 29.9°c 1009.6 hPa 48% 0.2mm
03/01:30pm N 9-12 kts 29.8°c 1009.9 hPa 48% 0.2mm
03/01:00pm NNE 9-12 kts 29.7°c 1010.2 hPa 48% 0.2mm
03/12:30pm NE 6-11 kts 29.4°c 1010.5 hPa 47% 0.2mm
03/12:00pm NNE 7-10 kts 29.2°c 1011.2 hPa 48% 0.2mm
03/11:30am ENE 5-6 kts 28.9°c 1011.7 hPa 50% 0.2mm
03/11:00am ENE 4-9 kts 27.8°c 1012.6 hPa 53% 0.2mm
03/10:30am SE 3-7 kts 27.9°c 1013.2 hPa 60% 0.2mm
03/10:00am ESE 5-8 kts 27.7°c 1013.1 hPa 63% 0.2mm
03/09:30am E 4-6 kts 27.1°c 1013.1 hPa 65% 0.0mm
03/09:00am SE 3-7 kts 26.0°c 1013.1 hPa 74% 1.8mm
03/08:30am SSE 4-6 kts 24.4°c 1013.0 hPa 79% 1.8mm
03/08:00am SSW 1-5 kts 23.1°c 1013.1 hPa 86% 1.8mm
03/07:30am CALM 0-3 kts 21.7°c 1013.0 hPa 95% 1.8mm
03/07:00am SW 1-5 kts 20.5°c 1012.8 hPa 96% 1.8mm
03/06:30am CALM 0 kts 20.0°c 1012.2 hPa 96% 1.8mm
03/06:00am CALM 0 kts 19.8°c 1011.8 hPa 96% 1.8mm
03/05:30am CALM 0 kts 19.8°c 1011.5 hPa 96% 1.8mm
03/05:00am CALM 0 kts 19.8°c 1011.1 hPa 95% 1.8mm
03/04:30am CALM 0 kts 19.8°c 1010.9 hPa 95% 1.8mm
03/04:00am CALM 0 kts 20.0°c 1010.9 hPa 95% 1.8mm
03/03:30am CALM 0 kts 20.3°c 1011.2 hPa 95% 1.8mm
03/03:00am CALM 0 kts 20.5°c 1011.2 hPa 95% 1.8mm
03/02:30am CALM 0 kts 20.7°c 1011.4 hPa 95% 1.8mm
03/02:00am S 3-5 kts 21.0°c 1011.7 hPa 95% 1.8mm
03/01:30am CALM 0 kts 20.9°c 1011.9 hPa 94% 1.8mm
03/01:00am CALM 0 kts 20.9°c 1012.1 hPa 93% 1.8mm
03/12:30am CALM 0 kts 21.5°c 1012.4 hPa 93% 1.8mm
03/12:00am CALM 0 kts 21.5°c 1012.5 hPa 92% 1.8mm
Time Wind Speed Temp Pressure Rel. Hum Rain
02/11:30pm CALM 0 kts 21.6°c 1012.7 hPa 91% 1.8mm
02/11:00pm CALM 0 kts 22.0°c 1012.8 hPa 92% 1.8mm
02/10:30pm CALM 0 kts 22.4°c 1013.1 hPa 91% 1.8mm
02/10:00pm CALM 0 kts 22.7°c 1013.3 hPa 90% 1.8mm
02/09:30pm CALM 0 kts 23.1°c 1013.4 hPa 89% 1.6mm
02/09:00pm CALM 0 kts 23.7°c 1013.4 hPa 87% 1.6mm
02/08:30pm CALM 0-3 kts 23.7°c 1013.3 hPa 86% 1.6mm
02/08:00pm CALM 0 kts 23.6°c 1013.1 hPa 90% 1.6mm
02/07:30pm CALM 0-3 kts 24.0°c 1012.9 hPa 85% 1.6mm
02/07:00pm NNE 3-6 kts 24.2°c 1012.7 hPa 85% 1.6mm
02/06:30pm NE 9-14 kts 25.0°c 1012.5 hPa 80% 0.2mm
02/06:00pm NNE 9-12 kts 26.6°c 1012.2 hPa 71% 0.0mm
02/05:30pm NNE 9-12 kts 27.0°c 1012.0 hPa 66% 0.0mm
02/05:00pm NNE 10-14 kts 27.4°c 1011.7 hPa 66% 0.0mm
02/04:30pm NNE 10-13 kts 27.7°c 1011.4 hPa 64% 0.0mm
02/04:00pm NNE 9-13 kts 29.4°c 1011.1 hPa 58% 0.0mm
02/03:30pm NNE 9-14 kts 29.3°c 1010.8 hPa 52% 0.0mm
02/03:00pm NNE 9-13 kts 29.6°c 1010.9 hPa 51% 0.0mm
02/02:30pm NNE 8-11 kts 30.7°c 1011.2 hPa 47% 0.0mm
02/02:00pm NE 6-9 kts 30.2°c 1011.7 hPa 52% 0.0mm
02/01:30pm NNE 9-14 kts 30.1°c 1011.9 hPa 49% 0.0mm
02/01:00pm NE 7-10 kts 30.5°c 1012.3 hPa 51% 0.0mm
02/12:30pm NE 6-10 kts 29.0°c 1012.7 hPa 50% 0.0mm
02/12:00pm NE 6-12 kts 30.2°c 1013.4 hPa 48% 0.0mm
02/11:30am NNE 6-8 kts 29.1°c 1013.9 hPa 54% 0.0mm
02/11:00am ENE 5-13 kts 29.0°c 1014.3 hPa 52% 0.0mm
02/10:30am SSE 3-10 kts 28.6°c 1014.8 hPa 59% 0.0mm
02/10:00am SSE 3-7 kts 27.5°c 1014.9 hPa 61% 0.0mm
02/09:30am S 3-6 kts 26.8°c 1015.3 hPa 67% 0.0mm
02/09:00am S 5-8 kts 26.2°c 1015.4 hPa 71% 0.0mm
02/08:30am S 5-7 kts 25.0°c 1015.2 hPa 76% 0.0mm
02/08:00am SSE 7-9 kts 24.2°c 1014.8 hPa 78% 0.0mm
02/07:30am SSE 6-9 kts 22.8°c 1014.6 hPa 83% 0.0mm
02/07:00am S 6-9 kts 21.6°c 1014.2 hPa 87% 0.0mm
02/06:30am S 5-6 kts 20.9°c 1014.0 hPa 88% 0.0mm
02/06:00am SSE 6-8 kts 20.9°c 1013.6 hPa 88% 0.0mm
02/05:30am SSE 6-9 kts 21.0°c 1013.4 hPa 88% 0.0mm
02/05:00am SSE 6-7 kts 21.0°c 1013.2 hPa 88% 0.0mm
02/04:30am S 6-8 kts 21.0°c 1013.1 hPa 89% 0.0mm
02/04:00am SSE 5-6 kts 21.1°c 1012.9 hPa 88% 0.0mm
02/03:30am SSE 5-7 kts 21.1°c 1012.7 hPa 88% 0.0mm
02/03:00am SSE 5-7 kts 21.1°c 1012.9 hPa 88% 0.0mm
02/02:30am SSE 5-7 kts 21.1°c 1013.1 hPa 89% 0.0mm
02/02:00am SSE 5-7 kts 21.2°c 1013.4 hPa 90% 0.0mm
02/01:30am SSE 5-6 kts 21.5°c 1013.7 hPa 89% 0.0mm
02/01:00am SSE 4-5 kts 21.7°c 1013.9 hPa 88% 0.0mm
02/12:30am SSE 2-5 kts 22.0°c 1014.3 hPa 85% 0.0mm
02/12:00am CALM 0 kts 22.6°c 1014.5 hPa 82% 0.0mm
Time Wind Speed Temp Pressure Rel. Hum Rain
01/11:30pm E 2-4 kts 23.2°c 1014.9 hPa 79% 0.0mm
01/11:00pm E 4-7 kts 23.8°c 1015.2 hPa 78% 0.0mm
01/10:30pm ENE 4-8 kts 23.6°c 1015.4 hPa 79% 0.0mm
01/10:00pm CALM 0 kts 22.3°c 1015.7 hPa 85% 0.0mm
01/09:30pm CALM 0 kts 23.0°c 1015.6 hPa 83% 0.0mm
01/09:00pm CALM 0 kts 23.4°c 1015.4 hPa 81% 0.0mm
01/08:30pm CALM 0 kts 24.1°c 1015.1 hPa 77% 0.0mm
01/08:00pm CALM 0-3 kts 24.9°c 1014.6 hPa 73% 0.0mm
01/07:30pm NE 4-6 kts 25.6°c 1014.3 hPa 70% 0.0mm
01/07:00pm NE 5-7 kts 25.9°c 1013.9 hPa 71% 0.0mm
01/06:30pm NNE 7-10 kts 26.4°c 1013.6 hPa 69% 0.0mm
01/06:00pm NNE 7-10 kts 26.8°c 1013.4 hPa 65% 0.0mm
01/05:30pm NNE 9-13 kts 27.6°c 1013.2 hPa 59% 0.0mm
01/05:00pm NNE 10-13 kts 28.0°c 1013.1 hPa 61% 0.0mm
01/04:30pm NNE 10-14 kts 28.5°c 1013.0 hPa 60% 0.0mm
01/04:00pm NNE 10-14 kts 28.7°c 1012.8 hPa 58% 0.0mm
01/03:30pm NNE 10-15 kts 29.4°c 1012.8 hPa 55% 0.0mm
01/03:00pm NNE 10-14 kts 29.8°c 1012.8 hPa 50% 0.0mm
01/02:30pm NE 9-13 kts 29.9°c 1012.9 hPa 47% 0.0mm
01/02:00pm NE 9-12 kts 30.1°c 1013.2 hPa 48% 0.0mm
01/01:30pm NNE 10-15 kts 29.9°c 1013.4 hPa 48% 0.0mm
01/01:00pm NE 8-15 kts 30.3°c 1013.8 hPa 48% 0.0mm
01/12:30pm NE 7-11 kts 29.6°c 1014.3 hPa 51% 0.0mm
01/12:00pm ENE 6-8 kts 29.0°c 1014.7 hPa 52% 0.0mm
01/11:30am ESE 5-8 kts 28.6°c 1015.2 hPa 58% 0.0mm
01/11:00am E 5-8 kts 28.4°c 1015.6 hPa 57% 0.0mm
01/10:30am ESE 6-9 kts 27.6°c 1015.8 hPa 58% 0.0mm
01/10:00am ENE 5-9 kts 27.4°c 1016.0 hPa 63% 0.0mm
01/09:30am ESE 5-8 kts 27.1°c 1015.9 hPa 62% 0.0mm
01/09:00am SSE 6-9 kts 26.4°c 1016.0 hPa 69% 0.0mm
01/08:30am SSE 7-10 kts 24.7°c 1015.9 hPa 77% 0.0mm
01/08:00am S 6-10 kts 23.8°c 1015.7 hPa 82% 0.0mm
01/07:30am SSE 5-8 kts 23.1°c 1015.2 hPa 86% 0.0mm
01/07:00am SSE 5-6 kts 21.8°c 1014.9 hPa 87% 0.0mm
01/06:30am SSE 5-6 kts 21.3°c 1014.6 hPa 91% 0.0mm
01/06:00am SSE 5-7 kts 21.3°c 1014.3 hPa 91% 0.0mm
01/05:30am SSE 5-7 kts 21.4°c 1014.2 hPa 92% 0.0mm
01/05:00am SSE 5-7 kts 21.5°c 1013.8 hPa 92% 0.0mm
01/04:30am CALM 0 kts 21.2°c 1013.6 hPa 92% 0.0mm
01/04:00am SSE 2-5 kts 21.8°c 1013.1 hPa 91% 0.0mm
01/03:30am SSE 4-6 kts 22.0°c 1013.1 hPa 91% 0.0mm
01/03:00am SSE 5-6 kts 22.2°c 1013.3 hPa 91% 0.0mm
01/02:30am SSE 5-6 kts 22.3°c 1013.6 hPa 90% 0.0mm
01/02:00am SSE 5-7 kts 22.6°c 1013.7 hPa 89% 0.0mm
01/01:30am SSE 5 kts 22.6°c 1013.9 hPa 90% 0.0mm
01/01:00am SSE 4-6 kts 22.2°c 1014.3 hPa 91% 0.0mm
01/12:30am CALM 0 kts 22.0°c 1014.4 hPa 89% 0.0mm
01/12:00am CALM 0 kts 22.1°c 1014.4 hPa 89% 0.0mm